This is the latest recevied weather packets stored in our database for station/object VE6HFD-WX. If no packets are shown the sender has not sent any weather packets the latest 10 day(s).
| Time | Temp. | Humidity | Pressure | Rain* | Wind** | Luminosity | Snow |
|---|---|---|---|---|---|---|---|
| 1787841996 | 18.89° C | 59% | 1007.2 hPa | 0 mm | - | - | - |
| 1787841666 | 18.89° C | 60% | 1007.3 hPa | 0 mm | - | - | - |
| 1787841336 | 18.33° C | 61% | 1007.2 hPa | 0 mm | - | - | - |
| 1787841006 | 18.33° C | 62% | 1007.3 hPa | 0 mm | - | - | - |
| 1787840676 | 17.78° C | 63% | 1007.4 hPa | 0 mm | - | - | - |
| 1787840376 | 17.22° C | 64% | 1007.3 hPa | 0 mm | - | - | - |
| 1787840046 | 16.67° C | 66% | 1007.4 hPa | 0 mm | - | - | - |
| 1787839716 | 16.11° C | 68% | 1007.4 hPa | 0 mm | - | - | - |
| 1787839386 | 15° C | 71% | 1007.4 hPa | 0 mm | - | - | - |
| 1787839056 | 13.89° C | 73% | 1007.5 hPa | 0 mm | - | - | - |
| 1787838726 | 13.89° C | 73% | 1007.6 hPa | 0 mm | - | - | - |
| 1787838396 | 13.33° C | 74% | 1007.5 hPa | 0 mm | - | - | - |
| 1787838066 | 12.78° C | 75% | 1007.4 hPa | 0 mm | - | - | - |
| 1787837736 | 12.78° C | 74% | 1007.3 hPa | 0 mm | - | - | - |
| 1787837406 | 12.78° C | 73% | 1007.4 hPa | 0 mm | - | - | - |
| 1787837076 | 12.78° C | 72% | 1007.3 hPa | 0 mm | - | - | - |
| 1787836746 | 12.78° C | 71% | 1007.4 hPa | 0 mm | - | - | - |
| 1787836416 | 12.78° C | 71% | 1007.2 hPa | 0 mm | - | - | - |
| 1787836086 | 12.78° C | 72% | 1007.3 hPa | 0 mm | - | - | - |
| 1787835756 | 12.78° C | 70% | 1007.4 hPa | 0 mm | - | - | - |
| 1787835427 | 12.78° C | 71% | 1007.4 hPa | 0 mm | - | - | - |
| 1787835097 | 12.78° C | 72% | 1007.3 hPa | 0 mm | - | - | - |
| 1787834766 | 12.22° C | 72% | 1007.3 hPa | 0 mm | - | - | - |
| 1787834467 | 12.22° C | 72% | 1007.4 hPa | 0 mm | - | - | - |
| 1787834137 | 12.22° C | 72% | 1007.5 hPa | 0 mm | - | - | - |
* Rain latest hour (hover to see other rain measurements)
** Current wind speed in m/s (hover to see current wind gust speed)